Track GLOBALSTAR M083 now! 10-day predictions GLOBALSTAR M083 is classified as:
1 37739U 11033A 24263.15303646 -.00000058 00000-0 25695-3 0 9996 2 37739 51.9848 149.4909 0000830 59.1665 106.3298 12.62264775612982